Wind_Speed
14 12 12 12 11 11 11 11 12 13 13 13 13 12 11 9 8 8 7 7 7 8 9 10 11 12 15 18 19 17 15 16 17 19 21 21 20 20 21 23 23 22 22 21 21 20 19 18 18 17 16 15 14 14 13 12 11 10 9 8 7 6 6 5 5 5 4 4 5 6 7 7 8 9 10 10 10 9 8 7 6 7 8 9 9
12 11 11 12 12 13 12 12 12 13 13 13 13 12 11 10 9 9 8 7 7 7 8 9 9 10 12 15 16 15 13 14 16 18 20 21 20 20 21 21 22 22 22 22 22 21 20 20 19 18 17 16 15 15 14 13 13 12 11 11 9 9 8 8 7 7 6 6 6 6 6 7 8 8 9 10 11 10 9 8 7 6 5 6 7
11 10 11 12 12 12 12 12 13 14 14 14 13 12 12 11 10 9 8 8 8 8 7 8 8 8 9 12 13 13 11 12 15 16 18 19 20 21 21 21 22 22 21 21 21 21 20 20 20 19 18 18 17 16 16 15 14 14 13 13 12 11 10 10 10 9 8 8 7 7 7 7 7 8 9 10 10 10 9 8 8 7 6 5 5
11 11 13 13 13 13 13 13 14 14 14 14 12 12 12 12 11 10 10 9 9 8 7 7 7 7 7 9 10 11 11 12 13 14 15 17 18 20 21 22 22 21 20 20 20 20 20 19 19 19 19 18 18 18 17 16 15 15 14 14 14 13 12 12 12 11 11 10 9 9 9 8 8 8 8 9 10 10 9 8 8 8 7 6 5
13 13 13 13 14 14 14 15 15 15 15 14 12 12 13 13 13 12 11 11 10 9 7 6 6 6 6 7 8 8 9 9 10 11 13 14 16 18 20 21 21 21 20 19 19 19 19 19 19 19 19 19 19 18 18 17 16 16 16 16 16 15 14 14 14 14 13 12 12 11 11 10 9 8 8 9 10 10 9 8 8 8 8 7 7
14 14 13 13 14 15 15 15 15 14 15 15 13 13 13 14 14 14 13 12 12 10 9 7 6 6 5 5 5 6 6 7 8 10 11 13 15 16 18 19 20 20 19 19 19 19 19 18 18 18 18 18 18 18 18 18 17 18 17 17 17 16 16 16 15 15 15 14 14 13 13 12 11 10 10 10 11 11 10 9 8 8 8 8 8
15 15 14 14 14 14 14 14 14 14 15 16 15 14 14 14 15 15 15 13 13 12 10 9 8 8 6 5 5 5 6 6 7 9 10 12 13 15 16 16 17 18 19 19 19 19 19 18 18 18 18 18 18 18 18 18 18 18 18 18 18 17 17 17 16 17 17 16 16 15 15 14 12 12 11 11 11 12 12 11 10 9 9 8 8
14 14 14 14 13 13 14 13 14 15 15 15 16 15 14 14 15 15 15 15 14 13 11 10 10 10 9 8 7 7 8 8 7 8 9 10 12 13 13 14 15 16 16 17 18 18 18 18 18 18 18 18 18 18 18 17 18 18 18 19 18 18 18 17 17 17 18 17 17 17 17 16 14 13 12 12 12 13 13 13 12 11 10 10 9
14 14 13 13 13 13 13 14 14 14 14 15 15 16 15 14 15 15 15 15 15 13 12 11 12 12 12 11 10 10 10 10 9 8 8 9 10 11 12 12 14 15 15 15 16 16 16 16 17 17 16 16 17 17 17 17 17 17 18 18 19 19 19 18 18 18 18 19 18 18 18 17 15 14 14 13 13 13 14 15 15 14 12 12 11
16 15 14 13 12 12 12 13 13 12 14 15 16 15 15 15 16 15 15 15 15 14 13 12 11 11 12 12 12 11 11 11 10 9 9 8 9 10 11 12 13 14 15 15 16 15 14 15 15 15 15 15 15 15 16 16 16 17 17 18 18 19 19 19 19 19 19 19 19 19 19 18 17 16 15 15 14 14 14 16 17 16 15 14 13
15 16 16 14 13 12 12 11 11 11 14 15 14 14 15 16 16 14 13 14 14 14 13 12 11 10 10 11 12 11 10 10 10 11 10 9 10 10 11 12 12 12 13 15 16 16 15 14 13 14 14 14 14 14 14 15 15 16 16 17 18 18 19 19 19 19 19 20 20 19 19 19 18 17 16 16 15 15 15 16 18 18 18 16 15
13 14 15 15 15 14 12 10 9 10 13 14 13 14 14 15 14 12 14 15 14 13 12 12 11 11 10 10 11 10 10 9 9 10 10 10 10 10 11 11 12 12 12 13 15 16 16 15 13 12 13 14 13 13 14 14 14 15 15 16 17 18 18 19 19 19 19 20 20 20 20 20 19 19 17 17 16 16 17 17 19 20 20 18 16
10 11 13 15 16 16 14 11 9 10 11 11 11 12 12 12 13 13 14 15 12 11 12 12 12 11 11 10 11 10 10 9 9 9 9 10 11 11 11 12 12 12 13 12 13 15 17 16 14 14 14 15 15 14 15 15 15 15 15 16 16 17 17 18 18 19 20 20 20 21 21 21 20 19 19 18 18 18 18 19 20 21 21 19 17
9 9 10 12 14 16 15 13 11 11 11 11 11 11 9 10 12 12 13 15 13 11 12 12 12 12 12 11 11 11 11 10 10 9 9 10 11 11 13 14 13 13 13 12 12 15 17 17 16 16 16 16 17 17 17 17 17 17 17 16 16 16 17 17 18 18 19 20 20 21 21 21 21 20 20 20 19 19 19 20 21 21 21 19 17
8 8 8 8 10 12 14 14 14 13 14 14 14 12 10 10 12 12 13 14 14 12 12 12 12 13 13 12 12 12 11 11 10 10 10 10 10 11 14 16 15 14 14 14 14 15 16 17 20 20 17 16 17 18 18 19 20 19 19 19 18 18 18 18 18 18 19 19 19 20 21 21 21 20 20 20 20 20 20 21 21 21 20 19 17
9 8 7 7 7 8 10 12 13 14 15 16 16 15 13 12 12 13 13 13 13 12 12 13 13 13 13 12 12 12 11 10 11 11 11 10 10 11 13 14 15 15 14 14 15 17 16 17 21 20 18 17 17 18 20 21 21 21 21 21 21 21 21 20 20 20 20 18 18 19 20 20 20 21 21 21 21 21 21 21 21 21 20 19 17
9 9 8 7 7 7 7 8 10 11 13 15 16 16 15 14 13 13 14 14 12 12 12 13 13 13 12 11 11 11 11 10 10 11 11 10 10 11 11 11 12 13 13 12 12 16 16 17 20 18 16 17 19 20 21 22 22 22 22 22 22 22 22 22 21 21 21 20 19 20 21 21 21 21 22 21 21 22 22 21 21 20 20 18 16
10 9 9 8 8 7 7 6 7 8 9 11 12 13 14 14 14 15 15 15 14 13 14 13 12 12 11 10 10 10 11 10 10 11 12 12 11 11 11 11 11 11 11 11 11 12 13 14 16 17 17 20 20 20 20 21 22 22 22 22 22 22 23 22 22 22 23 22 21 22 23 23 23 22 22 22 23 23 22 21 20 19 19 17 16
9 9 8 8 8 8 7 7 6 6 6 7 8 9 11 12 13 15 15 16 16 15 14 14 12 12 12 11 10 10 11 11 11 12 13 14 12 11 12 11 10 10 10 10 10 10 9 9 9 10 14 18 20 19 19 20 20 21 21 21 23 24 24 23 22 22 23 22 22 22 22 23 22 22 23 24 23 22 21 20 19 18 18 17 15
8 7 7 8 8 8 8 7 6 5 5 5 6 7 7 8 10 12 14 15 16 16 15 14 13 12 12 10 10 11 12 12 12 13 13 13 11 10 11 10 9 10 10 10 9 7 6 5 5 6 7 10 14 18 19 19 18 19 20 21 22 24 25 25 25 24 23 22 22 22 22 23 22 21 22 23 22 20 19 19 18 17 16 15 15
9 7 6 7 7 7 7 6 6 5 5 4 5 4 4 4 5 7 9 10 12 12 12 12 11 10 10 9 10 11 11 12 13 13 13 13 11 10 9 9 9 10 11 10 7 6 4 4 5 5 4 5 6 10 14 16 18 20 21 22 23 23 24 25 26 26 25 24 23 21 21 22 22 22 23 22 21 19 19 19 19 17 16 15 15
9 7 6 6 6 6 6 6 5 5 4 4 4 3 2 1 2 3 4 5 7 8 9 10 9 8 7 8 9 9 9 10 10 10 11 12 13 12 11 10 10 9 10 9 7 5 5 4 4 4 5 5 5 5 7 9 13 15 18 20 23 24 25 24 25 26 25 24 23 21 19 20 21 22 22 23 21 20 20 20 19 19 19 17 16
7 6 5 4 4 5 5 6 6 5 4 4 3 3 2 1 1 1 2 3 4 6 7 8 9 8 8 8 8 7 7 8 8 7 8 9 10 11 10 9 9 9 9 9 8 7 6 6 6 7 7 7 6 6 6 6 8 10 13 16 19 23 25 24 24 24 24 24 23 21 20 20 21 22 21 22 22 22 22 21 20 21 21 19 18
5 5 4 3 3 4 4 5 6 6 5 5 4 4 4 3 3 2 2 2 3 3 4 6 7 8 8 9 9 7 7 7 6 6 6 7 8 9 8 7 8 9 10 10 9 8 8 9 10 10 11 10 9 8 7 7 6 8 10 12 15 18 19 21 24 23 23 23 23 22 22 23 23 22 21 22 22 23 23 23 22 21 20 19 19
5 5 4 4 3 3 3 4 5 6 6 6 5 5 5 4 4 4 4 4 4 4 4 4 5 6 7 8 8 8 8 8 8 8 9 9 9 9 10 9 9 10 11 11 10 10 10 11 12 12 13 13 11 10 8 6 5 6 6 7 9 10 11 13 19 22 21 19 19 20 21 21 22 21 20 21 22 22 21 22 22 20 19 19 19
5 6 5 5 4 4 3 3 3 4 5 5 5 5 4 4 4 4 4 4 4 4 4 4 4 4 4 6 7 7 8 8 9 9 10 10 9 9 9 9 9 10 10 10 10 10 10 10 11 12 13 13 12 10 8 5 4 4 3 3 5 7 8 9 10 15 17 17 19 21 20 20 20 19 19 20 21 22 20 20 21 20 19 20 18
5 6 6 6 6 7 7 7 6 5 5 4 4 4 4 3 3 2 2 2 3 3 4 4 4 4 4 4 4 5 5 5 6 6 7 7 6 6 6 6 6 7 7 7 7 6 6 6 7 9 10 11 10 8 6 5 4 4 3 4 5 7 8 8 8 9 10 12 14 17 18 17 15 16 16 16 18 19 19 20 20 20 20 19 18
4 6 7 7 8 10 11 11 10 10 9 9 8 8 8 7 6 5 5 4 3 3 2 3 3 3 3 4 4 4 4 4 4 5 5 6 6 6 6 6 7 7 7 7 7 7 6 6 6 7 8 8 7 7 6 6 6 6 6 7 7 8 8 8 8 9 9 10 11 12 13 13 12 13 13 14 15 17 18 19 20 21 21 20 20
3 5 7 8 9 10 12 12 12 11 12 12 12 12 12 11 11 10 9 9 8 7 6 5 5 5 4 4 3 2 2 2 2 3 4 6 6 7 7 7 8 9 9 10 10 9 9 8 8 8 8 8 7 7 7 7 8 8 9 10 11 11 11 10 11 11 12 13 13 13 14 15 16 17 17 17 18 19 19 20 20 21 22 22 22
2 4 5 7 8 9 10 10 10 10 10 10 10 11 11 11 12 11 11 11 11 10 9 8 8 7 7 6 6 5 4 3 3 2 2 2 3 4 4 5 6 7 8 9 9 9 10 9 9 8 8 9 9 9 9 9 10 11 12 13 14 14 13 13 13 14 15 16 17 17 18 18 19 20 20 20 20 21 21 22 22 22 22 23 23
3 2 3 3 5 5 6 6 7 7 6 6 7 7 7 7 8 8 9 10 10 10 10 9 9 9 8 8 7 7 6 5 5 4 4 3 3 3 3 4 5 5 6 6 7 8 8 8 9 9 8 9 10 10 10 10 11 12 13 14 14 14 14 13 14 14 15 16 17 18 18 19 20 21 21 21 21 21 21 22 23 23 23 23 23
6 5 5 3 3 3 3 3 3 2 2 2 2 2 3 3 3 4 5 6 6 7 8 8 7 7 7 7 6 6 6 5 5 5 5 5 5 5 5 5 6 7 7 7 8 8 9 9 9 10 10 10 11 12 12 12 12 12 13 14 14 14 14 14 14 15 15 16 16 16 17 18 19 19 20 20 20 20 20 21 22 23 23 23 23
10 10 10 8 8 6 5 5 4 3 2 2 3 3 3 3 3 3 3 4 5 5 6 6 6 6 6 6 6 6 6 5 5 5 4 4 4 5 5 6 6 8 9 9 10 10 10 11 11 12 12 13 13 14 15 15 15 15 16 16 17 17 17 17 17 17 17 17 17 18 18 18 19 19 19 20 20 20 20 21 21 22 23 23 23
15 14 14 12 11 10 9 9 8 7 6 5 6 6 6 7 7 6 5 5 5 5 6 6 7 7 7 7 7 7 8 8 8 7 7 7 7 7 7 7 8 8 9 10 11 12 12 12 12 13 13 14 15 15 16 17 18 19 19 20 20 20 20 20 20 19 19 19 19 19 19 19 20 20 20 21 21 21 22 22 22 22 22 23 24
18 18 16 15 13 12 11 11 11 10 9 8 8 8 9 9 10 10 9 8 7 7 7 7 8 9 9 10 10 10 10 11 10 10 10 9 9 9 9 9 10 10 10 11 12 13 15 15 15 15 15 15 15 16 17 17 18 19 19 20 21 21 21 21 21 21 21 21 20 20 20 20 21 21 21 22 22 22 23 23 23 23 24 24 24
22 20 18 17 15 15 14 13 13 14 14 12 11 11 12 12 13 13 12 11 10 10 10 10 10 11 11 12 12 13 13 14 13 13 12 12 12 11 11 11 11 11 12 13 13 14 15 17 18 18 18 18 18 18 19 19 20 20 21 21 21 22 23 23 23 23 23 23 23 23 23 23 23 23 23 23 23 24 24 24 25 25 25 25 25
25 23 21 20 19 19 18 17 16 17 17 16 15 15 15 14 15 16 16 15 14 13 13 13 14 14 13 13 13 14 15 16 16 16 16 16 15 15 15 14 14 14 14 15 16 16 17 18 19 20 21 21 22 22 22 22 22 22 23 23 24 24 24 25 26 26 26 26 26 26 26 26 26 25 25 25 25 26 26 26 26 26 26 27 27
26 24 24 23 23 23 22 19 17 17 19 19 19 18 16 16 18 18 16 17 17 16 15 16 16 17 17 16 16 16 16 17 18 19 19 20 20 19 19 18 18 17 17 17 17 18 19 20 21 22 23 24 25 26 26 25 24 24 24 25 26 26 26 26 27 29 29 29 29 29 29 28 28 28 28 28 28 27 27 28 28 28 28 28 28
28 27 26 26 27 26 23 19 17 17 18 19 19 19 17 16 17 16 15 17 18 18 18 18 17 17 18 18 18 18 17 18 19 20 21 22 22 22 22 22 22 22 21 20 20 20 20 21 22 23 24 25 26 28 28 28 28 27 27 26 27 27 28 29 29 30 31 32 32 32 31 31 31 31 31 31 31 30 30 30 29 29 29 29 29
31 29 27 29 31 28 22 18 17 16 17 16 16 16 16 15 16 16 17 20 21 22 22 21 20 19 19 19 20 20 19 20 21 22 23 24 25 25 25 25 25 24 24 24 23 23 23 23 23 23 24 25 26 27 28 29 29 30 30 30 29 28 28 29 30 31 32 33 33 33 33 34 34 34 34 34 34 34 33 33 33 32 32 31 31
29 27 25 27 27 24 20 18 16 16 16 16 15 14 13 13 14 16 18 19 20 21 22 23 23 22 21 21 21 21 21 21 22 23 24 25 25 26 27 27 27 27 27 27 27 26 25 25 26 26 27 27 27 27 27 28 29 30 30 31 31 30 29 29 29 31 32 33 33 32 33 35 35 34 35 36 36 36 36 36 36 36 35 35 34
23 21 22 21 19 18 18 17 16 16 15 15 15 14 13 14 15 16 17 17 17 17 19 20 21 22 21 22 23 23 22 22 23 24 25 26 26 27 27 28 29 30 31 32 33 32 30 28 28 29 29 29 29 29 29 29 30 31 31 31 31 31 31 30 29 30 32 33 33 31 31 34 36 34 34 36 36 37 37 37 38 38 38 38 38
20 18 18 17 15 15 15 15 15 16 16 15 15 15 15 15 16 17 18 18 18 18 19 19 19 20 21 22 23 24 24 25 25 26 27 28 28 28 29 30 32 34 34 35 35 36 35 33 31 31 31 30 31 32 32 32 32 33 33 34 34 33 33 33 31 30 31 34 35 32 30 32 35 35 34 35 36 37 37 37 38 39 39 39 39
19 17 16 15 15 15 15 16 17 18 18 17 17 17 18 19 20 20 20 21 21 21 22 21 21 22 22 23 24 24 25 25 26 28 29 29 30 31 32 33 34 33 35 37 37 37 38 37 34 32 32 32 33 34 34 34 35 35 36 37 37 37 37 37 36 34 33 35 37 35 31 31 35 35 33 34 36 37 37 37 37 38 39 39 40
19 18 17 16 17 17 18 18 19 19 18 19 19 21 22 23 23 23 23 24 24 24 24 24 24 24 25 25 25 26 26 26 27 29 30 31 32 32 32 33 32 31 34 39 40 40 39 37 35 34 34 35 35 35 36 37 37 38 38 38 39 40 40 40 39 38 38 39 40 39 35 33 36 37 35 34 35 36 37 37 37 38 39 40 40
21 20 19 18 19 19 19 19 20 20 20 21 22 24 24 25 25 25 25 25 25 25 26 26 26 26 26 26 27 27 28 28 29 30 31 32 33 33 33 33 33 34 36 39 40 41 40 38 36 37 37 37 37 36 37 38 38 39 40 40 40 41 41 41 41 40 40 41 43 44 41 37 37 40 38 36 36 36 36 36 37 39 40 40 41
22 22 22 21 21 21 22 22 22 22 22 23 24 24 25 25 26 26 26 26 26 26 27 27 28 28 28 28 28 28 28 28 29 29 30 31 32 33 33 34 35 36 37 39 41 42 41 39 38 38 38 38 38 38 38 38 39 40 40 41 41 42 42 42 41 41 41 42 43 46 46 42 41 42 41 39 39 38 37 36 37 38 39 40 41
24 23 23 23 23 23 23 22 22 22 23 23 23 24 24 25 26 26 26 27 27 27 27 27 28 28 28 28 28 28 29 29 30 30 31 31 32 33 34 35 36 37 39 39 39 39 39 38 38 38 38 39 39 40 40 40 41 42 42 42 43 43 44 44 43 42 42 42 43 45 47 46 45 45 44 42 41 41 39 38 39 39 39 40 40
25 24 24 23 23 23 23 22 22 23 23 23 24 24 25 25 26 26 27 27 27 27 27 27 27 27 28 28 28 28 28 29 30 31 31 32 33 34 34 36 37 38 38 37 35 36 37 38 38 39 39 40 41 42 43 44 44 45 45 45 45 45 46 46 45 45 44 43 43 45 47 48 48 48 47 44 43 42 41 41 41 42 42 41 41
25 25 24 24 24 24 24 23 23 23 23 23 23 23 24 25 25 26 26 27 27 27 27 27 27 27 27 27 27 27 27 27 28 29 30 31 31 32 33 35 36 36 36 35 35 37 38 39 40 41 41 42 42 43 44 45 46 46 47 48 48 48 48 48 48 47 46 45 45 46 48 49 48 49 49 47 45 43 42 42 43 43 44 44 43
26 26 26 26 26 26 26 25 25 25 24 24 24 24 24 25 26 26 27 28 28 28 29 29 28 28 28 28 29 29 29 29 30 30 31 31 32 33 34 35 36 37 37 37 38 39 40 41 42 43 43 44 45 45 45 46 46 47 47 48 48 49 49 49 49 49 49 47 46 46 47 49 49 49 50 50 48 45 43 43 43 43 44 45 45
Wind_Direction
274 273 271 267 260 252 244 240 239 240 243 246 250 253 253 250 239 233 237 240 241 247 255 258 255 253 252 253 252 250 247 245 242 241 241 241 242 241 240 243 247 249 248 248 249 249 249 250 251 252 252 254 255 256 256 253 254 255 254 251 245 236 231 227 222 224 243 276 306 325 336 346 357 6 9 9 7 6 6 10 19 29 33 33 34
272 270 268 266 260 253 245 240 242 245 245 245 246 249 252 250 242 239 242 244 244 244 252 258 260 257 255 253 252 250 249 248 245 242 241 240 240 241 240 242 246 249 248 248 248 248 247 248 249 250 250 251 252 254 255 254 254 255 254 252 248 241 235 231 228 228 232 250 277 298 312 325 338 350 357 3 4 2 360 0 1 5 16 26 28
270 266 262 260 256 253 249 243 243 244 243 242 243 248 253 253 249 247 250 247 243 242 248 256 262 262 259 256 253 248 246 248 249 246 243 241 240 240 241 241 244 247 247 246 247 247 246 246 246 247 248 250 251 252 252 253 252 251 251 251 248 243 236 229 228 227 228 239 257 274 289 302 318 332 341 349 357 358 355 355 356 353 351 356 8
270 264 259 258 258 255 251 248 245 244 243 242 246 254 257 254 251 249 252 251 245 245 250 256 257 260 263 263 259 251 247 246 249 250 248 245 242 242 242 242 243 245 244 244 245 246 245 243 242 243 245 246 249 249 250 250 250 248 248 248 247 244 239 230 227 225 225 232 243 258 272 283 296 310 322 332 343 351 351 348 350 351 347 340 336
273 264 258 259 261 259 257 253 247 243 245 248 249 254 255 252 250 250 253 255 252 250 251 254 246 242 253 264 267 263 258 253 254 257 256 252 247 246 246 245 245 246 245 242 242 243 243 242 239 239 240 241 243 245 246 246 245 245 243 243 244 242 239 234 229 226 225 227 234 246 258 269 280 291 303 314 325 335 342 342 343 345 347 342 333
273 265 259 260 263 263 262 259 253 246 246 250 250 251 252 251 250 253 256 258 259 256 252 252 249 242 240 251 269 277 277 273 267 263 260 256 252 249 248 248 248 246 245 242 240 241 241 240 239 237 237 238 240 241 242 243 242 242 240 239 240 239 237 235 231 228 226 227 230 238 249 259 269 278 288 300 310 319 328 333 333 336 339 339 335
269 267 263 261 263 263 259 256 254 251 249 252 252 251 251 251 251 255 257 255 256 258 255 254 256 257 253 251 265 274 273 270 268 265 261 258 254 251 248 248 250 248 244 242 240 240 240 239 240 239 238 239 240 242 242 243 243 243 241 238 236 236 234 233 231 229 227 228 230 234 242 252 260 269 278 288 298 307 315 323 326 326 328 328 327
264 267 264 261 261 259 255 252 249 247 250 254 254 251 246 246 249 254 255 254 256 259 257 255 258 262 262 259 260 263 261 257 256 259 261 260 257 255 250 245 246 249 246 242 241 241 241 239 239 241 242 242 244 245 246 246 246 246 245 243 239 236 234 232 230 229 229 230 231 233 239 247 254 260 269 278 287 296 306 315 320 320 320 319 316
259 264 265 263 262 260 257 255 252 252 257 259 255 247 237 234 240 246 251 254 258 259 258 256 258 261 264 265 263 261 261 257 248 244 248 255 255 254 252 245 242 246 246 242 241 243 244 242 241 241 243 245 247 248 248 248 248 247 248 246 243 240 238 235 232 231 231 232 233 235 239 244 250 255 261 269 277 287 298 307 313 315 315 314 310
254 257 262 265 264 264 261 257 258 259 260 259 253 244 237 233 234 238 245 251 256 259 259 259 259 260 264 267 265 260 260 261 254 244 241 247 251 249 247 245 242 243 243 241 238 239 242 244 245 245 244 244 245 247 247 246 244 244 245 245 245 243 241 239 237 235 234 235 236 237 241 244 248 252 256 262 271 280 291 299 306 310 310 309 306
256 257 262 267 268 269 268 265 263 258 258 260 254 248 248 246 239 235 240 246 251 256 259 261 261 259 260 263 264 260 257 258 256 250 246 246 249 250 249 248 246 245 244 241 237 235 237 242 246 247 247 245 244 245 244 244 242 242 243 243 244 244 243 242 240 238 238 239 240 240 243 246 248 251 255 261 268 276 285 293 300 305 307 306 302
260 258 260 263 266 268 268 269 265 258 261 265 258 250 254 256 248 237 238 243 245 249 255 256 256 256 256 259 262 263 262 259 256 253 252 247 244 246 250 251 253 253 251 245 239 236 237 241 244 245 244 241 240 241 242 242 241 241 243 243 243 243 243 243 243 243 242 242 243 244 245 248 250 253 257 263 268 274 281 288 295 301 305 304 299
270 260 256 255 259 263 266 267 262 257 262 266 261 252 253 258 253 240 241 249 248 246 252 253 253 256 259 259 261 266 269 267 263 258 254 247 240 239 241 242 246 253 255 249 238 234 235 237 238 238 237 235 233 234 235 237 239 239 241 243 244 244 243 243 245 246 246 245 246 248 249 250 253 256 260 264 268 273 279 286 292 298 302 301 295
289 277 265 257 257 259 261 261 258 256 258 263 265 259 254 258 258 250 249 256 257 252 252 253 254 256 257 259 262 265 267 268 268 263 256 252 249 244 240 236 235 241 247 247 239 231 231 233 233 232 232 234 233 233 233 235 237 238 240 242 245 246 245 243 244 246 249 250 249 250 252 253 256 259 262 265 269 273 279 285 291 296 298 296 290
300 294 286 275 266 261 260 259 257 257 259 263 266 264 259 256 257 259 259 259 257 253 251 252 253 256 258 260 263 265 265 267 269 266 260 257 257 252 248 243 240 242 244 244 243 239 233 233 235 232 231 237 238 236 235 235 237 238 239 239 241 243 244 243 242 242 246 251 253 253 254 256 258 260 263 266 270 274 280 285 290 294 293 290 287
305 304 301 294 283 271 263 259 258 257 258 260 262 263 261 254 251 257 262 260 255 253 252 253 253 256 261 264 265 266 266 266 268 268 265 261 258 256 257 254 248 249 249 247 247 247 239 235 238 233 230 238 243 240 236 235 234 236 238 239 239 241 242 243 243 243 243 244 249 253 254 257 260 262 264 266 270 274 279 284 288 290 288 288 289
310 309 309 307 301 289 277 266 260 258 256 257 258 259 258 252 247 248 253 256 255 253 253 255 256 257 259 261 263 266 267 268 268 270 269 266 260 258 259 257 252 254 259 262 258 252 247 245 249 245 238 241 245 244 241 239 238 237 239 240 240 241 242 244 247 249 249 248 249 253 255 257 259 261 264 268 271 273 276 279 282 283 284 286 290
303 302 304 307 306 303 299 293 282 271 263 260 259 257 253 248 245 242 243 248 250 248 247 250 255 258 262 263 263 265 267 269 271 272 273 270 263 260 259 260 263 264 268 272 268 263 262 262 262 259 252 248 246 248 246 245 246 245 245 244 242 243 243 244 246 248 250 250 250 253 255 257 257 259 262 264 267 268 271 274 276 278 279 281 285
301 293 292 296 301 308 315 315 309 297 285 275 267 261 255 250 247 243 241 242 245 245 246 248 251 256 263 267 266 265 262 263 267 271 275 275 271 267 266 270 273 269 270 275 279 283 281 279 281 273 263 253 245 243 244 245 248 248 249 248 246 245 244 245 246 247 249 249 247 246 249 251 251 255 259 260 262 265 267 268 269 270 272 275 278
319 302 291 291 300 310 320 324 324 316 304 293 284 278 270 261 252 247 244 243 245 246 248 251 253 254 259 265 268 265 259 256 257 261 265 271 275 271 267 271 273 273 277 283 293 300 290 282 288 286 284 268 245 237 238 242 246 247 248 249 248 247 247 247 247 248 251 251 248 245 244 245 247 251 255 256 257 261 263 266 267 266 267 269 272
331 320 305 297 300 307 316 326 332 328 319 312 306 300 290 274 258 251 248 246 246 247 249 253 254 255 257 260 258 252 250 251 251 252 254 257 262 260 257 261 267 274 277 276 284 291 278 268 275 283 307 307 271 250 248 248 248 247 245 246 247 248 247 247 247 249 251 253 255 256 253 251 251 252 252 253 253 255 258 261 261 259 261 265 268
333 330 323 310 302 303 311 323 332 334 327 323 323 330 336 313 275 259 253 250 248 247 248 248 249 251 249 247 245 238 240 247 246 245 246 248 252 252 252 256 261 271 276 274 278 279 268 262 270 286 294 292 293 291 278 269 265 263 259 253 250 249 248 247 247 248 250 254 259 261 259 254 251 250 250 252 252 252 252 253 254 254 254 256 261
337 339 337 324 309 305 310 319 327 333 332 330 335 344 355 356 329 272 254 252 251 248 246 245 246 247 242 242 247 245 241 242 241 242 246 250 254 256 256 254 256 269 281 282 279 273 269 266 265 269 273 273 275 281 288 292 295 297 289 277 266 259 253 248 248 249 247 250 253 255 255 254 251 246 246 250 251 250 251 253 255 254 251 250 253
350 353 354 346 329 315 310 313 320 327 332 335 341 346 350 349 343 335 318 298 281 269 260 252 248 245 241 243 250 252 246 245 247 251 255 255 253 255 257 256 260 271 280 282 280 275 272 273 272 272 271 271 270 274 280 283 299 310 301 290 283 276 266 255 250 250 249 248 247 246 249 254 255 254 251 251 251 250 251 254 254 253 254 254 254
10 13 17 20 13 349 324 314 314 319 325 331 335 339 342 342 338 338 334 326 320 312 303 288 269 254 245 245 249 253 252 253 257 260 264 265 260 259 262 265 268 268 269 271 273 272 272 272 274 274 274 273 273 278 276 272 297 316 310 296 289 289 295 280 256 245 244 248 248 248 250 254 259 261 260 259 260 259 258 258 257 255 259 261 259
34 34 36 42 44 44 32 7 348 336 329 328 330 333 336 334 329 325 320 315 314 317 319 318 311 290 269 260 257 257 256 256 259 260 261 262 263 266 269 269 267 262 259 258 260 262 265 267 269 271 274 276 278 278 268 256 277 305 308 303 290 287 304 311 282 251 243 248 251 249 252 257 258 257 259 261 265 266 262 258 260 261 261 262 263
53 56 55 61 63 65 62 55 49 40 26 16 9 7 7 8 6 356 338 324 317 313 317 319 320 316 306 296 285 276 271 266 263 261 259 258 257 261 265 266 265 262 258 252 250 252 256 260 263 269 274 276 277 270 252 241 249 261 263 263 273 284 287 295 299 284 268 268 265 256 253 255 255 255 259 265 269 269 262 256 258 261 261 262 263
70 76 74 74 74 73 71 68 65 62 57 53 49 46 44 44 45 46 49 47 39 26 6 357 349 344 337 324 313 302 290 281 274 270 268 266 264 264 267 269 270 272 271 267 265 265 263 262 262 266 270 269 266 258 247 245 249 250 251 251 260 275 279 277 279 277 271 273 277 271 265 264 268 270 271 271 272 273 269 263 259 260 261 262 262
86 87 83 82 82 81 81 80 76 72 68 64 60 55 51 49 49 50 51 53 54 53 51 49 46 42 39 30 16 1 332 306 287 273 267 266 268 269 268 269 270 271 273 274 275 277 276 273 268 266 265 263 257 254 253 252 255 255 252 256 264 268 270 274 273 266 261 263 268 272 274 275 278 281 280 277 274 272 272 269 266 264 264 264 264
124 100 91 88 86 86 89 90 84 78 73 68 63 57 52 48 45 43 43 43 42 41 41 41 41 40 42 40 36 33 29 28 25 1 319 291 285 283 275 270 269 270 272 275 278 280 282 282 279 274 271 270 267 263 261 259 258 259 259 261 267 270 272 275 275 272 270 270 272 275 277 278 279 281 283 283 281 278 277 276 274 272 270 269 269
196 161 138 112 102 97 95 94 88 82 76 70 63 57 52 45 39 35 30 28 27 26 26 27 27 26 27 28 27 25 23 24 23 18 9 358 347 337 321 305 295 291 287 286 289 291 290 291 290 289 287 285 283 279 275 272 269 269 270 272 275 278 279 279 279 278 275 274 274 275 276 278 278 279 281 283 283 281 280 279 278 276 274 273 272
221 210 202 190 173 151 127 126 112 97 84 70 53 39 35 29 27 19 10 7 5 6 6 5 8 8 7 7 5 4 3 5 8 9 7 2 356 351 343 331 321 316 312 307 306 304 302 301 299 298 298 297 297 295 292 289 287 285 285 286 286 287 286 284 283 281 280 278 277 276 275 275 276 277 278 280 280 280 279 279 279 279 278 276 273
220 218 214 212 207 202 196 199 202 217 243 269 281 293 300 296 296 302 315 326 327 330 332 331 332 332 332 333 331 328 327 327 328 329 329 328 328 329 327 323 318 315 314 311 309 306 303 302 300 300 300 299 299 299 299 298 296 295 294 292 291 290 288 286 284 283 281 280 279 278 277 276 275 276 276 277 277 278 278 278 279 279 280 280 277
219 223 224 222 218 216 215 215 215 219 231 247 261 274 281 280 278 277 277 281 288 298 303 304 302 299 299 300 300 302 302 301 301 302 304 304 303 304 304 306 306 305 305 304 304 303 301 299 297 295 295 295 294 293 293 294 293 293 293 293 292 291 289 288 286 284 282 281 279 278 277 276 275 275 275 275 276 277 278 278 278 278 279 279 279
224 226 230 232 230 230 232 231 229 228 229 233 245 258 265 267 268 268 267 268 271 280 286 288 286 285 286 285 284 284 284 286 289 292 295 298 300 301 301 300 300 300 299 298 298 299 298 298 296 294 292 290 289 288 288 287 287 288 289 290 291 291 291 291 290 289 288 286 284 281 279 278 276 275 274 274 275 275 277 277 277 277 276 276 277
233 231 233 237 237 238 241 240 241 242 239 235 240 250 255 258 262 266 269 270 271 274 279 283 282 279 279 279 280 279 279 281 284 286 289 292 295 297 296 294 293 293 293 292 292 292 292 292 292 291 291 289 287 286 286 286 286 286 286 287 288 289 290 291 291 291 291 290 289 287 285 283 281 279 278 276 275 275 274 274 274 274 274 274 274
234 230 233 236 240 243 241 237 241 249 251 249 250 251 252 255 258 262 268 272 274 276 277 279 279 277 275 274 273 274 277 280 283 285 287 290 293 294 291 290 290 291 290 290 290 289 287 287 286 286 286 286 285 284 284 283 284 285 286 286 286 285 286 287 288 288 288 287 287 287 286 285 284 282 281 279 278 277 276 274 274 273 273 273 273
242 238 237 237 240 243 243 244 251 258 260 262 262 258 256 255 254 256 261 266 270 273 276 277 275 275 274 272 269 269 271 273 278 282 285 288 290 291 290 290 291 292 293 291 289 288 287 286 285 285 284 284 284 284 284 283 281 281 282 284 286 286 286 285 285 286 286 286 286 286 286 285 285 284 283 282 281 279 278 277 275 274 272 272 271
262 261 253 245 241 242 247 257 266 268 266 269 271 270 268 265 262 262 264 266 266 268 271 273 271 270 270 270 269 268 268 269 271 275 279 283 286 288 289 292 294 295 295 293 290 288 288 288 286 286 285 284 284 284 285 285 284 283 282 281 282 283 284 284 284 283 284 284 284 284 284 284 284 284 284 283 282 281 280 278 277 276 274 272 271
267 269 262 251 245 245 252 261 266 269 269 270 272 272 271 270 271 269 267 267 268 267 267 269 269 268 266 266 266 266 267 269 270 272 275 277 281 284 287 291 294 294 293 292 292 291 292 291 290 290 289 289 289 289 288 288 288 287 287 285 283 282 281 281 282 281 281 281 281 281 282 282 282 282 282 282 281 280 279 278 277 276 275 274 274
264 265 260 255 253 251 252 256 258 262 264 263 264 265 265 266 269 270 269 270 271 269 268 269 271 271 269 268 268 267 267 270 272 273 275 276 279 281 284 287 289 289 288 289 289 289 292 293 293 293 294 294 295 296 295 294 292 290 289 288 288 286 284 282 281 280 280 278 278 279 281 282 281 280 281 281 280 280 278 277 276 274 274 273 274
257 256 255 257 257 248 242 243 248 254 256 254 256 258 258 258 261 264 267 269 271 272 273 273 273 273 271 270 271 271 271 271 272 273 273 275 278 281 284 287 288 289 291 291 290 291 292 293 294 295 294 295 297 298 299 299 297 295 293 291 290 289 288 286 283 282 282 281 279 279 280 281 281 281 281 280 279 279 278 277 277 276 274 273 272
249 246 245 249 248 238 233 236 244 251 253 253 254 259 262 263 264 264 265 267 270 272 273 273 273 273 271 271 272 274 274 274 274 274 275 277 279 283 286 287 289 292 293 292 293 295 294 295 297 297 295 295 297 298 299 299 298 297 296 296 295 294 293 292 289 286 285 283 283 282 281 280 280 280 280 280 279 279 278 277 276 276 275 274 273
242 238 236 238 240 237 235 238 244 248 251 254 260 267 270 271 271 270 271 273 274 275 275 274 274 274 275 275 275 276 277 276 275 275 277 279 281 283 285 287 290 294 293 291 292 293 293 297 300 299 297 297 298 297 298 298 297 297 296 296 297 297 297 296 295 294 291 288 287 286 284 281 280 279 278 277 278 278 278 277 277 276 275 274 274
237 237 237 236 237 239 240 241 245 249 253 258 263 267 270 271 271 271 271 273 275 276 277 277 277 277 278 277 277 277 277 276 275 275 276 278 280 282 284 287 289 289 288 290 291 291 294 299 302 300 298 299 298 297 296 295 294 294 294 295 295 296 296 296 296 296 295 293 291 290 288 285 282 281 278 276 275 276 277 277 276 276 276 275 274
238 239 239 238 238 241 243 246 249 253 256 258 261 263 264 266 268 270 271 272 274 275 276 277 278 279 279 279 278 278 277 276 276 276 276 277 279 280 281 282 283 283 284 287 290 292 298 302 301 299 299 299 298 296 294 293 293 293 293 293 293 293 293 293 294 294 294 294 293 292 290 288 285 284 282 279 276 275 274 274 274 275 275 275 274
240 241 241 242 243 244 247 250 252 254 256 257 259 261 263 265 267 270 272 274 275 275 276 277 277 278 279 280 279 279 279 278 277 277 277 279 280 281 282 282 281 281 283 287 290 295 299 299 298 298 299 298 297 296 295 294 294 294 293 293 293 292 292 292 293 293 293 292 292 291 290 290 287 285 284 282 280 278 276 274 272 272 272 273 273
244 245 247 248 249 250 251 252 253 255 257 259 261 263 265 267 269 271 273 275 275 276 276 277 277 277 278 278 278 277 277 277 278 278 278 278 280 281 282 283 283 283 285 288 292 294 295 295 296 297 297 296 296 297 297 297 296 296 295 294 294 293 292 292 291 291 291 290 290 289 289 289 288 286 284 283 281 280 278 276 274 272 271 272 272
246 247 249 250 252 252 252 253 254 257 259 261 264 266 268 270 271 273 274 275 276 276 276 276 276 276 276 276 276 276 276 276 277 278 278 278 279 279 281 281 283 285 288 290 292 292 291 293 295 296 296 296 296 297 297 297 297 297 296 295 294 293 292 291 290 290 289 289 288 288 287 287 286 285 284 282 280 279 277 275 274 274 273 272 272
245 247 249 251 252 254 256 257 260 262 264 266 268 270 272 273 275 276 277 277 277 276 276 276 275 275 275 276 276 276 277 278 278 279 279 280 280 281 282 283 284 287 290 291 291 291 291 293 294 295 295 296 296 296 296 296 295 295 294 293 293 292 292 291 291 290 289 289 288 287 286 285 284 284 283 282 280 278 276 275 273 273 273 273 272
245 247 250 251 254 256 259 261 263 264 266 268 270 272 273 275 276 277 278 278 277 277 276 275 274 274 274 275 275 277 277 279 280 281 282 283 283 283 283 284 286 288 289 289 289 289 290 292 292 293 294 294 295 295 295 295 294 294 294 293 293 293 292 292 292 291 290 289 289 287 285 283 282 282 282 282 280 278 276 275 274 273 272 272 272
Height
3152 3152 3152 3153 3153 3152 3152 3153 3153 3154 3154 3154 3154 3155 3155 3156 3157 3157 3158 3158 3159 3159 3159 3159 3160 3160 3160 3161 3161 3163 3165 3166 3167 3168 3170 3171 3173 3174 3175 3176 3177 3178 3179 3180 3181 3182 3183 3184 3185 3186 3186 3187 3188 3188 3189 3189 3189 3190 3190 3190 3190 3191 3191 3191 3191 3191 3191 3191 3191 3191 3191 3191 3191 3191 3190 3190 3189 3189 3188 3188 3187 3187 3186 3186 3185
3150 3151 3151 3151 3151 3151 3151 3152 3153 3153 3153 3153 3153 3154 3155 3155 3156 3156 3157 3157 3158 3158 3158 3159 3159 3159 3159 3159 3160 3162 3163 3165 3166 3167 3168 3169 3170 3172 3173 3174 3175 3176 3177 3178 3179 3180 3181 3182 3183 3184 3184 3185 3186 3186 3187 3188 3188 3188 3189 3189 3189 3189 3190 3190 3190 3190 3190 3190 3191 3191 3191 3191 3191 3191 3190 3190 3189 3188 3188 3187 3187 3187 3186 3186 3186
3149 3149 3149 3149 3150 3150 3150 3151 3152 3153 3153 3153 3153 3154 3154 3155 3155 3156 3156 3157 3157 3157 3158 3158 3158 3159 3158 3159 3159 3160 3162 3163 3164 3165 3167 3168 3169 3170 3171 3172 3173 3174 3175 3176 3177 3178 3179 3180 3180 3181 3182 3183 3184 3184 3185 3186 3186 3187 3187 3187 3188 3188 3188 3189 3189 3189 3189 3189 3190 3190 3190 3190 3190 3190 3190 3189 3189 3188 3188 3187 3187 3186 3186 3186 3186
3148 3148 3148 3148 3149 3150 3150 3151 3151 3152 3152 3153 3153 3154 3154 3154 3155 3155 3155 3156 3156 3156 3157 3157 3158 3158 3158 3158 3159 3159 3161 3162 3163 3164 3165 3166 3167 3168 3169 3170 3171 3172 3173 3174 3175 3176 3177 3177 3178 3179 3180 3181 3181 3182 3183 3184 3184 3185 3186 3186 3186 3187 3187 3187 3187 3188 3188 3188 3188 3188 3189 3189 3189 3189 3189 3189 3188 3188 3187 3187 3186 3186 3185 3185 3185
3147 3147 3147 3148 3149 3149 3150 3150 3150 3151 3152 3152 3153 3153 3153 3153 3153 3154 3154 3155 3155 3156 3156 3157 3157 3158 3158 3158 3158 3159 3159 3161 3162 3162 3164 3165 3166 3166 3167 3168 3169 3170 3171 3172 3173 3174 3175 3175 3176 3177 3178 3178 3179 3180 3181 3181 3182 3183 3184 3184 3184 3185 3185 3186 3186 3186 3187 3187 3187 3187 3187 3187 3188 3188 3188 3187 3187 3187 3187 3186 3186 3185 3185 3185 3184
3145 3145 3146 3147 3148 3148 3149 3149 3150 3151 3151 3151 3152 3152 3152 3152 3152 3153 3153 3154 3154 3155 3155 3156 3157 3157 3158 3158 3158 3158 3158 3159 3160 3161 3162 3163 3164 3165 3166 3167 3167 3168 3169 3170 3171 3172 3173 3174 3174 3175 3176 3176 3177 3178 3179 3179 3180 3181 3181 3182 3183 3183 3184 3184 3184 3185 3185 3186 3186 3186 3186 3186 3186 3186 3186 3186 3186 3186 3186 3186 3185 3185 3184 3184 3184
3143 3144 3145 3146 3146 3147 3147 3148 3149 3150 3150 3150 3150 3151 3151 3151 3152 3152 3152 3153 3153 3154 3154 3155 3156 3156 3157 3157 3157 3158 3158 3158 3159 3160 3160 3161 3162 3163 3164 3165 3166 3166 3167 3168 3169 3170 3171 3172 3173 3173 3174 3175 3175 3176 3177 3177 3178 3179 3179 3180 3181 3181 3182 3182 3183 3183 3184 3184 3185 3185 3185 3185 3185 3185 3185 3185 3185 3185 3185 3185 3185 3184 3184 3183 3183
3141 3143 3143 3144 3145 3146 3146 3146 3147 3148 3148 3149 3149 3149 3150 3150 3151 3151 3152 3152 3152 3153 3153 3154 3155 3155 3156 3157 3157 3157 3158 3158 3158 3159 3159 3160 3161 3161 3163 3164 3164 3165 3166 3167 3168 3169 3170 3171 3171 3172 3172 3173 3174 3175 3175 3176 3176 3177 3178 3178 3179 3179 3180 3180 3181 3182 3182 3183 3183 3183 3183 3183 3184 3184 3184 3184 3184 3184 3184 3184 3184 3183 3183 3183 3182
3140 3141 3142 3142 3144 3144 3145 3145 3146 3147 3148 3147 3147 3147 3148 3149 3149 3150 3151 3151 3151 3152 3152 3153 3154 3154 3155 3155 3156 3157 3157 3157 3158 3158 3158 3159 3159 3160 3161 3162 3163 3163 3164 3165 3166 3168 3168 3169 3170 3170 3171 3171 3172 3173 3174 3174 3175 3175 3176 3177 3177 3178 3178 3179 3179 3180 3180 3181 3181 3182 3182 3182 3182 3182 3182 3182 3182 3182 3182 3182 3182 3182 3182 3182 3181
3139 3140 3140 3141 3142 3143 3143 3144 3145 3147 3146 3145 3146 3146 3147 3148 3147 3148 3149 3150 3150 3151 3151 3152 3153 3153 3153 3154 3154 3155 3156 3156 3157 3157 3157 3158 3158 3159 3159 3160 3161 3162 3163 3164 3165 3166 3167 3168 3168 3169 3169 3170 3171 3171 3172 3172 3173 3173 3174 3175 3176 3176 3177 3177 3178 3178 3179 3179 3180 3180 3180 3180 3181 3181 3181 3181 3181 3181 3181 3181 3181 3181 3181 3180 3180
3137 3138 3139 3140 3140 3141 3141 3143 3144 3145 3144 3144 3145 3146 3147 3147 3147 3147 3148 3148 3149 3149 3150 3151 3151 3152 3152 3152 3153 3154 3154 3155 3156 3156 3156 3157 3157 3158 3158 3159 3159 3160 3161 3162 3163 3164 3165 3166 3167 3167 3168 3169 3169 3170 3170 3171 3171 3172 3172 3173 3174 3174 3175 3176 3176 3177 3177 3177 3178 3178 3178 3179 3179 3179 3179 3179 3180 3180 3180 3180 3180 3179 3179 3179 3179
3136 3137 3138 3138 3138 3139 3140 3142 3143 3144 3143 3143 3144 3145 3146 3147 3147 3147 3147 3146 3146 3148 3149 3149 3150 3150 3151 3151 3151 3152 3153 3154 3155 3155 3155 3156 3156 3156 3157 3158 3158 3159 3160 3160 3161 3162 3163 3164 3165 3166 3166 3167 3168 3168 3169 3169 3170 3170 3170 3171 3172 3172 3173 3174 3174 3175 3175 3176 3176 3176 3177 3177 3177 3177 3178 3178 3178 3178 3178 3178 3178 3178 3178 3178 3177
3134 3135 3136 3137 3137 3137 3138 3140 3141 3142 3142 3142 3142 3144 3146 3147 3147 3146 3145 3144 3145 3147 3147 3148 3148 3149 3149 3150 3150 3150 3151 3152 3153 3154 3154 3154 3155 3155 3156 3156 3157 3157 3158 3158 3159 3160 3161 3162 3163 3163 3164 3165 3166 3166 3167 3167 3168 3168 3169 3169 3170 3170 3171 3171 3172 3173 3173 3174 3174 3174 3175 3175 3175 3175 3176 3176 3176 3177 3177 3177 3177 3177 3177 3176 3176
3133 3134 3134 3135 3135 3135 3136 3138 3139 3140 3141 3141 3141 3142 3145 3146 3145 3144 3144 3143 3144 3146 3146 3146 3147 3147 3148 3149 3149 3149 3150 3150 3151 3152 3152 3153 3154 3154 3154 3154 3155 3156 3156 3157 3158 3158 3159 3160 3160 3160 3161 3163 3163 3164 3165 3165 3166 3166 3167 3167 3168 3168 3169 3169 3170 3170 3171 3171 3172 3172 3172 3173 3173 3174 3174 3174 3174 3175 3175 3175 3175 3175 3175 3175 3174
3131 3132 3133 3133 3134 3134 3135 3136 3137 3138 3139 3139 3140 3140 3142 3143 3143 3143 3142 3142 3143 3144 3145 3145 3145 3146 3146 3147 3148 3148 3149 3149 3149 3150 3150 3151 3152 3152 3152 3152 3154 3154 3154 3155 3157 3157 3157 3158 3158 3158 3158 3160 3161 3162 3163 3163 3163 3164 3164 3165 3165 3166 3166 3166 3167 3167 3168 3169 3169 3170 3170 3171 3171 3172 3172 3172 3173 3173 3173 3173 3173 3173 3173 3173 3173
3130 3130 3131 3132 3132 3133 3134 3134 3135 3136 3137 3137 3138 3138 3139 3140 3141 3141 3141 3141 3142 3142 3143 3143 3144 3144 3145 3145 3146 3146 3147 3147 3147 3147 3148 3150 3150 3150 3150 3150 3151 3152 3152 3153 3154 3155 3155 3155 3156 3156 3156 3158 3159 3160 3160 3160 3161 3162 3162 3162 3163 3163 3163 3164 3164 3164 3164 3165 3167 3167 3168 3169 3169 3170 3170 3170 3171 3171 3171 3171 3171 3172 3172 3171 3171
3130 3130 3130 3130 3131 3132 3132 3133 3134 3135 3135 3136 3136 3136 3137 3138 3139 3139 3140 3140 3140 3141 3141 3142 3142 3142 3143 3144 3144 3145 3145 3146 3146 3146 3146 3147 3148 3149 3149 3149 3149 3150 3151 3151 3152 3153 3154 3154 3155 3155 3154 3156 3157 3157 3158 3158 3159 3159 3160 3160 3161 3161 3161 3162 3162 3162 3162 3164 3165 3166 3166 3167 3168 3168 3168 3169 3169 3169 3169 3169 3169 3169 3169 3169 3169
3130 3130 3130 3130 3130 3130 3131 3132 3132 3133 3133 3134 3134 3135 3135 3136 3137 3138 3138 3138 3139 3140 3140 3140 3141 3141 3142 3142 3143 3143 3144 3144 3145 3145 3144 3145 3146 3147 3147 3147 3148 3149 3149 3150 3150 3151 3152 3152 3152 3152 3152 3154 3155 3155 3156 3157 3157 3158 3158 3158 3159 3159 3160 3160 3161 3161 3160 3162 3163 3164 3164 3165 3165 3166 3166 3166 3167 3167 3167 3167 3167 3167 3167 3167 3167
3130 3130 3130 3130 3130 3130 3130 3131 3131 3131 3132 3132 3133 3133 3134 3135 3135 3136 3137 3137 3137 3138 3138 3139 3139 3140 3140 3141 3142 3142 3142 3143 3143 3144 3143 3143 3144 3146 3146 3146 3147 3148 3148 3148 3149 3149 3150 3150 3150 3150 3151 3151 3152 3153 3154 3154 3155 3156 3156 3157 3157 3158 3158 3159 3159 3159 3158 3159 3160 3161 3161 3161 3161 3163 3163 3163 3164 3164 3164 3164 3164 3164 3165 3165 3165
3130 3130 3130 3130 3129 3130 3130 3130 3130 3130 3130 3131 3132 3132 3133 3133 3134 3135 3135 3135 3136 3136 3136 3137 3138 3138 3139 3140 3140 3141 3141 3141 3142 3142 3143 3142 3143 3145 3145 3145 3146 3146 3147 3147 3148 3148 3148 3149 3149 3149 3149 3149 3149 3151 3152 3153 3153 3154 3154 3155 3155 3156 3156 3157 3157 3157 3156 3156 3156 3157 3158 3158 3159 3160 3160 3161 3161 3162 3162 3162 3162 3162 3163 3163 3163
3130 3129 3129 3129 3130 3130 3130 3130 3130 3130 3130 3130 3131 3132 3132 3133 3133 3133 3134 3134 3134 3134 3135 3135 3136 3137 3138 3139 3139 3139 3140 3140 3140 3141 3141 3141 3141 3143 3144 3145 3145 3145 3146 3146 3147 3148 3147 3148 3148 3148 3149 3148 3149 3149 3150 3151 3151 3152 3152 3152 3152 3153 3154 3154 3155 3155 3155 3154 3154 3156 3157 3157 3157 3158 3157 3158 3158 3158 3159 3159 3160 3161 3161 3161 3161
3130 3130 3129 3129 3129 3129 3130 3130 3130 3130 3130 3130 3131 3132 3132 3132 3133 3133 3133 3133 3133 3133 3134 3134 3135 3136 3137 3137 3137 3138 3138 3139 3139 3139 3140 3140 3140 3141 3143 3144 3144 3145 3145 3145 3146 3146 3146 3147 3147 3147 3147 3148 3148 3148 3149 3149 3149 3150 3149 3149 3150 3151 3151 3152 3152 3152 3153 3153 3153 3155 3156 3155 3155 3155 3156 3156 3155 3156 3156 3157 3157 3158 3159 3159 3160
3131 3130 3130 3129 3129 3130 3130 3130 3130 3131 3131 3131 3132 3132 3133 3133 3133 3133 3133 3133 3132 3132 3133 3133 3134 3135 3135 3136 3136 3137 3137 3138 3139 3139 3139 3139 3139 3140 3142 3143 3143 3144 3144 3144 3145 3145 3145 3146 3146 3146 3146 3146 3147 3147 3147 3147 3148 3148 3148 3147 3148 3149 3149 3149 3149 3150 3151 3150 3150 3152 3153 3153 3152 3153 3154 3154 3154 3154 3154 3155 3155 3156 3156 3157 3158
3132 3131 3130 3130 3130 3130 3130 3130 3131 3131 3132 3132 3133 3133 3133 3133 3133 3133 3133 3133 3132 3132 3132 3132 3133 3134 3134 3135 3135 3136 3137 3137 3138 3138 3138 3139 3139 3140 3141 3142 3143 3143 3143 3143 3143 3144 3144 3144 3144 3144 3145 3145 3145 3146 3146 3146 3146 3146 3146 3146 3146 3146 3146 3146 3146 3147 3148 3149 3148 3149 3150 3150 3149 3150 3152 3152 3152 3152 3152 3152 3152 3153 3154 3155 3156
3133 3131 3131 3130 3130 3131 3131 3131 3132 3132 3133 3133 3133 3134 3134 3134 3134 3134 3133 3133 3133 3132 3132 3132 3132 3133 3134 3134 3135 3135 3136 3137 3137 3138 3138 3138 3139 3139 3140 3141 3141 3142 3142 3142 3142 3142 3143 3143 3143 3143 3143 3143 3144 3144 3144 3144 3145 3145 3145 3144 3144 3144 3145 3144 3144 3144 3145 3147 3147 3147 3147 3148 3148 3149 3150 3150 3149 3150 3152 3151 3150 3151 3152 3153 3154
3133 3132 3131 3131 3131 3131 3132 3133 3133 3134 3134 3134 3135 3135 3135 3135 3135 3135 3135 3134 3134 3133 3133 3133 3133 3134 3134 3134 3135 3135 3136 3136 3137 3137 3137 3138 3138 3138 3139 3140 3140 3140 3141 3141 3141 3141 3141 3142 3142 3142 3142 3142 3142 3143 3143 3143 3143 3144 3144 3143 3143 3143 3143 3143 3142 3142 3143 3144 3144 3144 3145 3145 3146 3147 3148 3147 3147 3148 3150 3150 3149 3149 3150 3150 3151
3134 3133 3133 3132 3132 3132 3132 3133 3134 3135 3136 3136 3136 3136 3136 3136 3136 3136 3136 3135 3135 3134 3134 3134 3134 3135 3135 3135 3135 3136 3136 3136 3137 3137 3137 3137 3138 3138 3138 3139 3139 3139 3139 3140 3140 3140 3140 3140 3141 3141 3141 3141 3141 3141 3142 3142 3142 3143 3143 3142 3142 3142 3142 3142 3142 3141 3142 3142 3142 3142 3142 3143 3143 3144 3145 3145 3145 3146 3146 3147 3147 3147 3148 3148 3148
3135 3134 3134 3133 3133 3133 3133 3134 3135 3136 3137 3137 3137 3137 3137 3137 3137 3137 3137 3136 3136 3135 3135 3135 3135 3135 3135 3136 3136 3136 3136 3137 3137 3137 3137 3137 3137 3138 3138 3138 3138 3138 3138 3139 3139 3139 3140 3140 3140 3140 3140 3140 3140 3140 3141 3141 3141 3141 3142 3142 3142 3142 3142 3142 3141 3141 3141 3141 3142 3141 3141 3141 3141 3142 3143 3143 3144 3143 3143 3144 3144 3145 3145 3146 3146
3135 3135 3135 3134 3134 3134 3134 3135 3136 3137 3137 3138 3138 3138 3138 3138 3138 3137 3137 3137 3137 3136 3136 3135 3135 3135 3136 3136 3136 3136 3136 3137 3137 3137 3137 3137 3137 3137 3138 3138 3138 3138 3138 3138 3138 3139 3139 3139 3139 3139 3139 3139 3139 3139 3140 3140 3140 3140 3140 3140 3140 3140 3141 3141 3140 3140 3140 3140 3140 3140 3140 3140 3140 3140 3140 3141 3141 3141 3141 3141 3141 3142 3142 3143 3143
3136 3136 3135 3135 3135 3135 3135 3136 3136 3137 3137 3138 3138 3138 3138 3138 3138 3138 3138 3138 3137 3137 3136 3136 3136 3136 3136 3136 3136 3136 3137 3137 3137 3137 3137 3137 3137 3137 3138 3137 3137 3138 3137 3138 3138 3138 3138 3138 3138 3139 3139 3138 3138 3139 3139 3139 3139 3139 3139 3139 3139 3139 3139 3139 3139 3139 3139 3138 3138 3138 3138 3137 3138 3138 3138 3138 3138 3138 3138 3138 3138 3138 3139 3139 3139
3136 3136 3136 3136 3136 3136 3136 3136 3137 3137 3138 3138 3138 3138 3138 3138 3138 3138 3138 3138 3138 3138 3137 3137 3136 3136 3136 3136 3136 3136 3137 3137 3137 3137 3137 3138 3138 3138 3138 3138 3137 3137 3137 3137 3137 3137 3138 3138 3138 3138 3138 3138 3137 3138 3138 3138 3138 3138 3138 3138 3137 3137 3137 3137 3137 3137 3137 3136 3136 3136 3136 3135 3135 3136 3136 3136 3135 3135 3135 3135 3135 3135 3135 3135 3136
3136 3136 3136 3136 3136 3136 3136 3137 3137 3137 3138 3138 3138 3138 3138 3138 3138 3138 3138 3138 3138 3138 3138 3137 3137 3137 3137 3137 3137 3137 3137 3137 3137 3137 3137 3137 3138 3138 3138 3138 3137 3137 3137 3137 3137 3137 3137 3137 3137 3137 3137 3137 3137 3137 3137 3137 3137 3137 3137 3136 3136 3136 3136 3135 3135 3135 3135 3134 3134 3134 3134 3134 3133 3133 3133 3133 3133 3133 3133 3133 3132 3132 3132 3132 3132
3134 3134 3134 3135 3135 3135 3135 3136 3136 3137 3137 3137 3138 3138 3138 3138 3138 3138 3138 3138 3138 3138 3138 3138 3138 3137 3137 3137 3137 3136 3137 3137 3137 3137 3137 3137 3137 3137 3137 3137 3137 3137 3137 3136 3136 3136 3136 3136 3136 3136 3136 3136 3136 3136 3136 3135 3135 3135 3135 3134 3134 3134 3133 3133 3133 3133 3133 3132 3132 3132 3132 3131 3131 3131 3131 3131 3131 3131 3130 3130 3130 3130 3129 3129 3129
3132 3132 3133 3134 3134 3135 3135 3135 3135 3135 3135 3136 3136 3136 3136 3136 3136 3136 3136 3136 3137 3137 3137 3137 3137 3137 3137 3137 3136 3136 3136 3136 3136 3136 3137 3137 3137 3137 3137 3137 3137 3137 3136 3136 3136 3135 3135 3135 3135 3135 3135 3135 3135 3135 3135 3134 3134 3133 3133 3132 3132 3132 3131 3131 3130 3130 3130 3130 3130 3129 3129 3129 3128 3128 3128 3128 3128 3128 3128 3127 3127 3127 3127 3126 3126
3130 3131 3132 3133 3134 3134 3134 3135 3134 3134 3134 3134 3134 3134 3135 3135 3135 3134 3134 3135 3135 3135 3135 3135 3136 3136 3136 3136 3136 3136 3135 3135 3135 3135 3135 3136 3136 3136 3136 3136 3136 3136 3136 3136 3135 3135 3134 3134 3134 3134 3134 3134 3134 3133 3133 3133 3132 3132 3131 3130 3130 3129 3129 3128 3128 3127 3127 3127 3127 3126 3126 3126 3125 3125 3125 3125 3125 3125 3125 3125 3124 3124 3124 3124 3124
3128 3129 3130 3131 3132 3132 3133 3133 3133 3133 3133 3132 3132 3132 3132 3133 3133 3133 3133 3133 3133 3133 3133 3134 3134 3134 3134 3135 3135 3135 3134 3134 3134 3134 3134 3134 3134 3135 3135 3135 3135 3135 3135 3135 3134 3134 3134 3133 3132 3132 3132 3132 3132 3132 3131 3131 3130 3130 3129 3129 3128 3127 3127 3126 3125 3125 3124 3124 3123 3123 3123 3123 3122 3122 3122 3122 3121 3121 3121 3121 3121 3121 3121 3121 3121
3126 3127 3128 3128 3129 3130 3130 3130 3131 3131 3132 3131 3130 3130 3129 3130 3131 3132 3132 3132 3132 3131 3132 3132 3132 3132 3132 3132 3133 3133 3133 3133 3132 3132 3132 3132 3132 3132 3133 3133 3133 3133 3133 3133 3132 3132 3132 3131 3131 3130 3130 3130 3129 3129 3129 3129 3128 3127 3127 3126 3126 3125 3125 3124 3122 3122 3121 3121 3120 3120 3120 3119 3119 3119 3119 3118 3118 3118 3118 3118 3118 3118 3118 3118 3117
3124 3125 3126 3126 3126 3126 3127 3128 3129 3129 3130 3130 3129 3129 3128 3128 3128 3129 3130 3130 3130 3130 3130 3130 3130 3130 3130 3130 3130 3130 3131 3131 3130 3130 3130 3130 3130 3130 3130 3130 3130 3130 3130 3130 3130 3130 3129 3129 3129 3128 3128 3127 3126 3126 3126 3126 3126 3126 3125 3124 3123 3122 3122 3121 3120 3119 3118 3118 3117 3117 3116 3116 3116 3115 3115 3115 3114 3114 3114 3114 3114 3114 3114 3114 3113
3122 3123 3123 3124 3124 3124 3125 3126 3127 3127 3127 3127 3127 3127 3127 3126 3126 3127 3127 3128 3128 3128 3128 3128 3128 3128 3129 3129 3129 3128 3128 3128 3128 3128 3128 3127 3127 3127 3127 3127 3128 3128 3127 3127 3127 3127 3127 3126 3126 3125 3124 3124 3123 3123 3122 3122 3122 3122 3122 3122 3121 3120 3119 3118 3117 3116 3115 3114 3114 3113 3112 3112 3112 3112 3111 3111 3110 3110 3110 3110 3110 3110 3109 3109 3109
3119 3119 3120 3120 3121 3123 3124 3124 3124 3124 3124 3125 3125 3125 3126 3125 3125 3125 3125 3126 3126 3126 3126 3126 3126 3127 3127 3127 3127 3127 3127 3126 3126 3126 3125 3125 3124 3124 3124 3124 3125 3124 3124 3124 3124 3124 3124 3123 3123 3122 3121 3120 3120 3120 3119 3119 3118 3117 3117 3117 3117 3117 3116 3115 3114 3113 3112 3111 3110 3110 3109 3108 3108 3107 3107 3106 3106 3106 3106 3106 3105 3105 3105 3105 3105
3116 3116 3116 3117 3119 3121 3122 3121 3121 3121 3122 3123 3123 3123 3123 3123 3123 3123 3123 3124 3124 3124 3124 3124 3124 3124 3125 3125 3125 3125 3125 3124 3124 3124 3123 3122 3121 3121 3121 3121 3121 3121 3121 3121 3121 3121 3120 3120 3119 3118 3118 3117 3116 3116 3116 3115 3114 3113 3113 3112 3112 3112 3112 3112 3111 3109 3108 3107 3107 3107 3106 3104 3103 3103 3102 3101 3101 3100 3100 3100 3100 3100 3100 3101 3101
3113 3113 3114 3115 3116 3117 3118 3118 3118 3119 3120 3121 3120 3120 3120 3121 3121 3121 3121 3122 3121 3121 3121 3122 3122 3122 3122 3122 3122 3122 3122 3122 3122 3121 3120 3120 3119 3118 3118 3117 3117 3116 3116 3116 3116 3116 3117 3116 3116 3115 3114 3114 3113 3112 3112 3111 3110 3109 3108 3107 3107 3106 3106 3106 3107 3106 3103 3102 3102 3103 3103 3100 3098 3099 3098 3096 3095 3095 3095 3095 3095 3094 3095 3095 3096
3110 3111 3112 3112 3113 3113 3114 3115 3115 3116 3117 3117 3117 3117 3117 3118 3118 3119 3119 3119 3119 3119 3119 3119 3119 3119 3120 3120 3119 3119 3119 3119 3119 3118 3118 3117 3117 3116 3115 3114 3113 3112 3112 3111 3111 3111 3111 3112 3112 3111 3110 3110 3109 3108 3107 3107 3105 3104 3103 3102 3101 3101 3101 3100 3101 3101 3100 3097 3096 3098 3100 3097 3094 3094 3094 3092 3091 3090 3090 3090 3089 3089 3089 3089 3089
3108 3109 3109 3109 3110 3110 3111 3112 3113 3113 3114 3114 3114 3114 3114 3114 3115 3116 3116 3116 3116 3116 3116 3116 3117 3117 3117 3117 3116 3116 3116 3116 3116 3115 3115 3114 3113 3112 3111 3110 3110 3109 3108 3107 3106 3106 3106 3107 3107 3107 3106 3105 3105 3104 3103 3102 3101 3099 3098 3097 3096 3095 3095 3094 3094 3095 3094 3092 3091 3092 3095 3093 3090 3089 3090 3088 3086 3085 3085 3085 3084 3083 3083 3083 3083
3105 3106 3107 3107 3107 3108 3108 3109 3110 3111 3111 3111 3111 3111 3111 3112 3112 3112 3113 3113 3113 3113 3113 3113 3114 3114 3114 3114 3113 3113 3113 3113 3113 3112 3112 3111 3110 3109 3108 3107 3106 3106 3105 3103 3102 3102 3102 3103 3102 3101 3101 3101 3100 3099 3098 3097 3096 3095 3094 3093 3092 3090 3090 3089 3088 3088 3087 3086 3084 3084 3087 3088 3085 3083 3084 3084 3082 3081 3081 3080 3079 3078 3077 3077 3077
3103 3103 3104 3105 3105 3106 3106 3107 3108 3108 3108 3109 3109 3109 3109 3109 3109 3109 3110 3110 3110 3110 3110 3110 3110 3110 3110 3110 3110 3110 3110 3110 3109 3109 3108 3107 3106 3106 3105 3104 3103 3102 3101 3099 3098 3097 3098 3098 3097 3096 3096 3095 3095 3094 3093 3092 3091 3090 3089 3089 3088 3086 3085 3084 3084 3083 3082 3080 3078 3076 3078 3081 3079 3077 3077 3078 3077 3077 3076 3076 3075 3073 3072 3072 3071
3100 3101 3102 3103 3103 3104 3104 3105 3105 3106 3106 3106 3106 3106 3106 3106 3106 3106 3106 3107 3107 3107 3107 3107 3107 3107 3107 3107 3106 3106 3106 3105 3105 3105 3104 3103 3103 3102 3101 3100 3099 3098 3097 3096 3095 3094 3093 3093 3092 3091 3091 3090 3089 3088 3087 3086 3085 3085 3084 3083 3082 3081 3080 3079 3079 3078 3077 3075 3073 3070 3069 3072 3072 3070 3070 3071 3070 3070 3070 3070 3069 3068 3067 3066 3066
3097 3098 3099 3100 3100 3101 3102 3102 3102 3103 3103 3103 3103 3103 3103 3103 3103 3103 3103 3104 3104 3104 3104 3104 3104 3104 3104 3103 3103 3103 3102 3102 3101 3101 3100 3100 3099 3098 3097 3096 3095 3094 3093 3093 3092 3091 3089 3088 3088 3087 3086 3085 3084 3083 3082 3081 3080 3079 3078 3077 3076 3075 3073 3073 3073 3072 3071 3070 3068 3065 3063 3064 3064 3063 3063 3064 3064 3064 3064 3063 3062 3062 3061 3061 3060
3095 3096 3096 3097 3097 3098 3098 3099 3099 3100 3100 3100 3101 3101 3101 3101 3101 3100 3101 3101 3101 3101 3101 3101 3101 3100 3100 3100 3100 3099 3099 3098 3098 3097 3096 3096 3095 3094 3093 3092 3091 3091 3090 3089 3089 3087 3086 3085 3084 3083 3082 3081 3080 3079 3077 3076 3074 3073 3071 3070 3069 3068 3067 3066 3066 3066 3066 3065 3063 3061 3058 3057 3056 3055 3056 3057 3057 3057 3057 3057 3056 3055 3054 3055 3054
3092 3093 3094 3094 3095 3095 3096 3097 3097 3098 3098 3098 3098 3098 3098 3098 3098 3098 3098 3098 3098 3098 3098 3098 3098 3097 3097 3097 3096 3096 3095 3095 3094 3094 3093 3092 3092 3091 3090 3089 3088 3087 3086 3085 3085 3083 3082 3081 3080 3079 3078 3077 3075 3074 3073 3071 3069 3068 3066 3064 3063 3061 3060 3059 3058 3058 3058 3058 3057 3055 3053 3051 3050 3048 3047 3049 3050 3051 3051 3050 3050 3049 3048 3047 3047
3090 3091 3091 3092 3092 3093 3094 3094 3095 3095 3096 3096 3096 3096 3096 3096 3095 3095 3095 3095 3095 3095 3095 3095 3095 3094 3094 3094 3093 3093 3092 3092 3091 3090 3089 3089 3088 3087 3086 3085 3084 3083 3082 3081 3080 3079 3078 3077 3076 3075 3073 3072 3070 3069 3067 3066 3064 3062 3060 3058 3056 3055 3053 3052 3051 3050 3050 3051 3051 3049 3046 3045 3044 3042 3040 3039 3040 3043 3044 3043 3043 3042 3042 3041 3040